Temp_Advection
nan nan nan nan nan nan nan nan nan nan nan nan nan nan nan nan nan nan nan nan nan nan nan nan nan nan nan nan nan nan nan nan nan nan nan nan nan nan nan nan nan nan nan nan nan nan nan nan nan nan nan nan nan nan nan nan nan nan nan nan nan nan nan nan nan nan nan nan nan nan nan nan nan nan
nan -0 -0 -0 -1 -1 -1 -1 -1 -0 -1 -1 -1 -1 -1 -1 -1 -1 -2 -3 -3 -2 -2 -2 -1 -2 -1 -1 -1 -1 -2 -2 -1 -0 -1 -1 -1 -0 1 1 1 0 -0 -0 -1 -1 -1 -1 -2 -1 -1 -1 -1 -0 -0 -1 -1 0 1 1 1 0 0 1 1 1 1 1 1 1 1 0 -0 nan
nan -0 -1 -0 -0 -1 -0 -0 -1 -1 -1 -1 -1 -1 -1 -1 -0 -0 -0 -2 -4 -2 -1 -2 -2 -1 -2 -1 -1 -1 -2 -2 -1 0 0 -1 -2 -1 -0 1 1 1 0 -0 -1 -1 -1 -1 -1 -1 -1 -1 -1 -1 -0 0 0 0 0 1 1 1 0 1 1 1 1 0 0 0 0 -0 -1 nan
nan -0 -1 -0 -0 -1 -1 -0 -0 -1 -1 -1 -1 -1 -2 -1 -1 0 1 -1 -5 -3 -1 -2 -2 -2 -2 -2 -2 -2 -2 -3 -2 -1 0 0 -1 -2 -1 0 1 1 0 0 -0 -1 -1 -1 -1 -1 -1 -1 -1 -1 -0 1 1 1 1 1 1 1 1 1 0 0 0 0 0 0 0 -0 -0 nan
nan 0 -1 -1 -0 -0 -1 -1 -1 -1 -1 -1 -1 -1 -2 -2 -1 -0 1 -0 -4 -4 -2 -2 -3 -2 -1 -1 -2 -2 -2 -2 -3 -3 -1 0 0 -1 -2 -1 1 1 1 1 -0 -1 -1 -1 -1 -1 -1 -1 -1 -1 -0 -0 1 1 1 1 1 1 0 1 1 1 1 0 0 0 0 -0 -0 nan
nan -0 -1 -1 -1 -0 -0 -1 -1 -1 -1 -1 -1 -1 -1 -2 -2 -1 -0 -1 -2 -4 -3 -2 -3 -3 -2 -2 -2 -2 -2 -2 -3 -3 -3 -1 1 -0 -2 -2 -0 1 1 1 0 -1 -1 -0 -1 -1 -0 -1 -1 -1 -1 0 2 2 1 1 1 1 1 1 1 1 1 0 0 0 0 -0 -1 nan
nan -0 -0 -0 -1 -0 -0 -1 -1 -1 -1 -1 -1 -1 -1 -1 -1 -1 -1 -1 -1 -3 -3 -3 -2 -2 -2 -2 -3 -3 -2 -2 -2 -2 -3 -2 -1 -1 -1 -2 -2 -0 0 1 1 -1 -2 -0 -1 -1 -0 0 -0 -1 -1 1 2 1 1 2 2 1 1 2 2 1 1 0 1 1 0 -0 -0 nan
nan -0 -0 -1 -0 -1 -1 -1 -1 -1 -1 -1 -1 -1 -1 -0 -1 -1 -1 -1 -1 -2 -3 -3 -2 -2 -1 -2 -2 -2 -2 -3 -3 -2 -2 -2 -2 -2 -1 -1 -2 -1 -0 1 1 -1 -2 -1 -1 -1 -0 0 0 -1 -0 1 1 1 1 2 2 2 1 2 1 0 0 1 1 0 -0 -0 -0 nan
nan 0 -0 -1 -0 -0 -1 -1 -1 -1 -1 -1 -0 -1 -0 -0 -1 -1 -0 -1 -1 -1 -2 -3 -3 -2 -1 -1 -2 -2 -2 -2 -3 -3 -2 -2 -1 -2 -2 -1 -2 -2 -1 -0 1 1 -1 -1 -1 -0 1 1 -0 -0 0 0 1 1 1 1 1 2 1 1 0 -0 1 2 1 0 -0 -0 -0 nan
nan -0 -1 -1 -0 -0 -0 -1 -1 -1 -1 -0 0 -0 -1 -0 -0 -0 -1 -0 -0 -0 -1 -2 -3 -3 -2 -1 -2 -3 -2 -1 -2 -3 -3 -2 -2 -2 -2 -2 -2 -2 -1 -0 1 1 0 -1 -1 0 1 0 -0 -0 0 0 1 1 1 1 2 1 1 0 -0 0 1 1 1 0 0 0 -0 nan
nan -0 -0 -1 -1 -0 -1 -1 -1 -1 -0 -0 -0 -0 -0 -0 0 -0 -1 0 0 -0 -1 -1 -2 -3 -3 -1 -2 -4 -3 -1 -1 -2 -3 -3 -2 -2 -2 -2 -2 -2 -1 -0 0 1 1 -0 -1 0 1 0 -0 0 0 0 1 1 1 1 1 1 0 0 0 1 1 1 1 0 0 0 0 nan
nan -0 -0 -0 -0 -1 -1 -1 -1 -1 0 0 -1 -1 0 1 1 0 -0 -0 0 -0 -1 -1 -1 -2 -2 -2 -1 -2 -3 -3 -3 -2 -2 -3 -2 -2 -2 -2 -1 -1 -1 -0 0 0 0 0 -0 -0 -0 -0 -0 0 0 0 1 1 1 1 1 1 1 1 1 1 1 1 1 0 -0 -0 -1 nan
nan -0 -0 -1 -1 -1 -2 -1 -1 -0 1 1 -0 -1 0 1 1 0 -0 -0 -0 -0 -1 -1 -1 -1 -1 -2 -2 -2 -3 -4 -4 -3 -2 -2 -2 -2 -2 -2 -1 -2 -2 -1 -0 0 0 0 0 -0 -1 -1 0 1 0 0 0 1 1 1 1 1 1 1 1 1 0 0 0 -0 -0 -1 -1 nan
nan -0 -0 -1 -1 -1 -2 -1 -1 -1 -0 1 1 -0 1 1 1 0 -0 -0 -0 -0 -1 -1 -1 -1 -1 -1 -1 -2 -3 -3 -3 -4 -2 -2 -3 -3 -2 -2 -2 -2 -2 -1 -0 0 1 1 0 -0 -1 -1 0 0 -0 -0 0 1 0 0 1 1 1 1 0 0 0 0 0 -0 -1 -1 -1 nan
nan -0 -1 -1 -1 -1 -1 -1 -1 -1 -1 -0 0 1 1 1 1 1 -0 -1 -1 -0 -1 -1 -0 -0 -1 -1 -1 -2 -3 -2 -2 -3 -2 -2 -4 -4 -2 -1 -2 -2 -1 -1 -0 0 1 1 1 -0 -1 -1 0 -1 -1 0 1 1 1 1 1 0 0 0 0 0 0 -0 -0 -1 -2 -2 -1 nan
nan -0 -1 -1 -1 -1 -2 -1 -1 -1 -1 -1 -0 -0 0 1 1 1 0 0 0 -0 -0 -0 -0 -0 -1 -1 -1 -1 -2 -2 -2 -2 -2 -2 -3 -4 -4 -2 -2 -2 -1 -1 -0 0 1 1 0 -0 -1 -0 -0 -1 -0 1 0 0 1 1 0 -0 -0 0 0 0 0 -0 -0 -1 -1 -1 0 nan
nan -0 -0 -1 -1 -1 -1 -1 -1 -2 -2 -1 -1 -1 0 1 1 -0 -1 0 1 0 0 -0 -0 -0 0 -0 -1 -1 -1 -1 -2 -2 -3 -3 -3 -3 -4 -4 -2 -2 -1 -0 -0 0 0 1 0 -0 -1 -0 -1 -0 0 -0 -1 -0 1 0 0 1 1 1 1 1 0 0 0 -0 -0 0 1 nan
nan 0 0 -1 -1 -2 -1 -1 -1 -1 -2 -1 -1 -0 0 0 -0 -1 -1 -0 1 1 0 -0 -1 -0 0 0 -0 -0 -0 -1 -1 -1 -2 -3 -3 -3 -4 -4 -3 -2 -1 -1 -0 0 1 1 0 -0 -0 0 0 0 0 -1 -1 0 1 1 1 1 1 1 1 0 -0 0 0 -0 -0 -0 -0 nan
nan 1 1 1 -1 -2 -2 -2 -1 -0 -1 -1 -0 -0 -0 -1 -1 -1 -1 -1 0 1 0 -0 -0 0 1 0 0 -0 -0 -0 -1 -2 -2 -2 -2 -3 -4 -4 -3 -3 -2 -1 -0 0 0 0 1 0 0 1 0 0 -0 -0 0 1 1 1 1 0 -0 0 0 -0 -0 -0 0 -0 -0 -0 -0 nan
nan 0 1 0 -0 -1 -2 -3 -2 -1 1 1 0 -1 -1 -1 -1 -1 -2 -1 -0 0 0 0 0 0 1 0 -0 -0 0 -0 -1 -1 -2 -2 -1 -1 -3 -4 -4 -4 -3 -1 0 0 0 0 0 0 0 0 0 -0 -1 0 1 1 0 -0 -0 -0 0 1 0 0 -0 -0 -0 -1 -1 -0 -0 nan
nan -0 0 0 0 -0 -2 -4 -4 -2 0 2 2 0 -1 -1 -1 -1 -1 -1 -1 -1 -1 -0 0 0 0 0 0 0 1 1 1 1 -0 -3 -1 -0 -2 -4 -5 -5 -3 -1 0 0 0 -0 0 0 0 0 0 0 0 0 1 1 -0 -0 0 0 0 0 -0 -0 -0 -0 -0 -1 -1 -1 -1 nan
nan -1 -1 0 1 -0 -3 -4 -3 -2 -0 1 2 1 -1 -1 -1 -1 -0 -0 -1 -1 -1 -0 0 0 0 1 1 0 1 1 1 2 0 -2 -1 -0 -2 -4 -5 -5 -3 -1 0 0 0 0 1 1 0 0 1 1 1 -1 -0 0 0 0 0 -0 -1 -1 -1 -1 -1 -1 -1 -1 -1 -1 -1 nan
nan -1 -2 -1 -0 -1 -2 -3 -2 -2 -0 1 0 -0 -1 -0 -1 -1 -1 0 0 -0 -0 -0 0 1 1 2 2 1 0 0 0 1 0 -0 -0 -1 -2 -3 -5 -5 -2 -0 0 0 1 1 0 0 0 0 0 0 -0 -1 -1 1 1 -0 -1 -1 -1 -1 -0 -1 -1 -1 -1 -1 -1 -0 -0 nan
nan -1 -2 -2 -2 -3 -3 -2 -2 -2 -1 -1 -0 1 1 -0 -1 -2 -2 -0 1 1 1 1 1 1 1 1 2 1 1 -0 -0 -0 -0 -1 -1 -1 -2 -2 -4 -4 -2 -0 0 1 0 0 -0 -0 1 1 -0 -1 -1 -1 -1 0 1 -0 -0 -0 -1 -1 -1 -0 -0 -0 -0 -0 -0 0 0 nan
nan -1 -2 -3 -3 -3 -3 -2 -2 -2 -1 -1 -0 1 -0 -2 -1 -1 -1 -0 1 2 2 2 2 2 1 1 1 1 1 -0 -1 -1 -1 -1 -1 -1 -1 -2 -3 -4 -2 -1 0 0 -0 -0 -0 0 1 0 -1 -1 -1 -1 -1 -0 0 0 -0 -0 -0 -1 -0 0 0 -0 -0 -0 -0 -0 0 nan
nan -1 -1 -3 -3 -2 -3 -3 -2 -2 -2 -1 -0 -1 -2 -2 -0 1 -0 -0 1 2 2 3 2 1 0 0 0 -0 -0 -1 -2 -2 -1 -1 -1 -1 -2 -2 -3 -3 -3 -1 -1 -0 -0 0 0 0 0 -0 -0 -0 -1 -1 -1 -0 0 0 -0 -1 -1 -1 -0 -0 -0 -0 -0 -0 -0 -0 -0 nan
nan -1 -1 -2 -2 -2 -2 -3 -2 -2 -2 -1 -2 -2 -2 -1 0 1 0 0 1 1 2 2 1 0 0 0 0 -0 -1 -2 -2 -2 -1 -1 -1 -2 -3 -4 -3 -2 -2 -2 -1 -0 0 1 0 0 0 0 1 1 -1 -2 -1 -0 0 -0 -1 -1 -1 -1 -0 -0 -1 -0 -0 -0 -0 -0 -0 nan
nan -1 -1 -2 -2 -2 -2 -2 -2 -2 -1 -1 -2 -2 -1 -0 -0 0 0 1 1 1 1 1 0 0 0 0 -0 -1 -1 -2 -1 -1 -1 -1 -2 -2 -3 -2 -1 -1 -2 -2 -1 0 1 1 0 0 -0 0 1 0 -1 -2 -1 -0 -0 -0 -0 -0 -0 -1 -1 -1 -0 -0 -0 -0 -0 0 0 nan
nan -1 -2 -1 -1 -1 -2 -1 -1 -1 -1 -1 -1 -1 -0 -0 0 0 0 1 1 1 0 1 0 -0 -0 -0 -1 -1 -1 -1 -1 -1 -1 -1 -1 -2 -1 -1 -1 -2 -2 -0 0 1 1 1 0 -0 -0 0 0 -1 -1 -1 -1 -1 -1 -0 -0 -0 -0 -1 -1 -0 -0 -0 -0 -0 0 0 0 nan
nan -1 -1 -1 -1 -1 -1 -0 -0 -0 -1 -1 -1 -0 -0 -0 0 1 0 0 0 0 0 0 0 -0 -0 -0 -0 -1 -1 -1 -1 -1 -1 -1 -1 -1 -1 -1 -1 -1 -0 0 1 1 1 0 -0 -0 -0 -0 -0 -1 -1 -1 -1 -0 -0 -0 -0 -0 -0 -0 -0 -0 -0 -0 -0 -0 -0 -0 -0 nan
nan -1 -0 -0 -0 -1 -0 0 1 0 0 -0 -1 -1 -0 -0 -0 0 1 0 -0 -0 -0 -0 0 0 -0 -0 -1 -1 -1 -1 -1 -1 -1 -1 -1 -1 -1 -1 -0 0 1 1 1 1 0 -0 -0 -0 -0 -0 -0 -0 -1 -1 -0 -0 -0 -0 -0 -0 -0 -0 -0 -0 -0 -0 -0 0 0 -0 -0 nan
nan -1 -0 -0 0 -0 -0 0 0 0 0 0 -0 -0 -0 -0 -0 -0 0 1 0 -0 -0 -0 0 0 -0 -0 -1 -1 -1 -0 -0 -0 -0 -0 -0 -0 -0 -0 0 0 1 1 1 0 -0 -0 -0 -0 -0 0 0 -0 -0 -0 -0 -0 -0 -0 -0 -0 -0 -0 -0 -0 -0 0 0 0 0 0 0 nan
nan -1 -1 -0 -0 -0 -1 -1 -1 -1 -1 -0 0 0 -0 -0 -0 -0 -0 0 0 0 -0 -0 -0 0 -0 -0 -1 -1 0 0 0 0 0 0 -0 -0 0 0 0 0 1 0 0 -0 -0 -0 0 0 0 0 0 -0 -0 -1 -1 -1 -0 -0 -0 -0 0 0 0 0 0 0 0 0 0 0 0 nan
nan -1 -1 -0 -0 -1 -1 -2 -2 -2 -2 -1 -1 -0 -0 -0 -0 0 -0 -0 0 0 -0 -0 -0 -0 -0 -1 -0 -0 0 0 0 0 0 0 0 0 0 1 1 1 1 0 -0 -0 -0 0 0 0 -0 0 0 -0 -1 -1 -1 -0 -0 -0 -0 -0 0 0 0 0 0 0 -0 0 0 0 0 nan
nan -1 -1 -1 -1 -1 -1 -1 -1 -2 -2 -1 -1 -1 -0 -0 -0 -0 -0 -0 -0 -0 -0 -0 -0 -0 -0 -0 -0 0 0 0 0 0 0 0 0 0 0 0 0 0 0 -0 -0 0 0 0 -0 -0 -0 -0 -0 -0 -1 -1 -1 -1 -1 -0 -0 0 0 0 0 0 0 0 0 0 0 0 0 nan
nan -1 -1 -2 -2 -2 -1 -1 -0 -1 -1 -1 -1 -1 -0 -0 -0 -0 -0 -0 -0 -0 -0 -0 -0 -0 -0 -0 0 0 0 0 0 0 0 0 0 0 0 0 0 0 -0 -0 -0 0 0 -0 -0 -0 -0 -0 -0 -1 -1 -1 -1 -0 -0 -0 0 0 0 0 0 0 0 0 0 0 0 0 0 nan
nan -1 -1 -1 -1 -1 -1 -1 -1 -0 -0 -0 -0 -0 -0 -0 0 0 0 0 -0 -0 -0 -0 -0 -0 -0 0 0 0 0 0 0 0 0 0 0 0 0 1 0 -0 -1 -0 0 0 -0 -1 -0 -0 -0 -0 -1 -1 -1 -1 -1 -0 -0 0 0 0 0 0 0 0 0 0 0 0 0 0 0 nan
nan -2 -2 -1 -1 -1 -1 -1 -1 -1 -0 -0 -0 -0 -0 -0 0 0 0 0 -0 -0 -0 -0 -0 -0 -0 0 0 0 0 1 0 0 -0 -0 0 0 0 0 -0 -1 -1 -0 -0 -1 -1 -1 -0 -0 -0 -0 -1 -1 -1 -1 -1 -1 -0 0 0 0 0 -0 0 0 0 0 0 0 0 0 0 nan
nan -2 -2 -2 -1 -1 -1 -1 -1 -1 -1 -1 -1 -1 -1 -1 -1 -0 -0 -0 -0 -0 -0 -0 -0 -0 0 0 0 0 0 0 -0 -0 -0 -0 0 0 0 -0 -1 -1 -0 -0 -1 -1 -1 -0 -0 -0 -1 -1 -1 -1 -1 -1 -1 -0 0 0 0 0 0 -0 -0 -0 0 0 0 0 0 0 -0 nan
nan -1 -1 -1 -1 -1 -1 -1 -1 -1 -1 -1 -1 -1 -1 -1 -1 -1 -1 -0 -0 -0 -0 -0 -0 0 0 0 0 0 0 -0 -1 -1 -0 -0 -0 -0 -0 -0 -0 -0 -0 -0 -0 -0 -0 -0 -0 -0 -1 -1 -0 -0 -0 -0 0 0 0 0 0 0 0 0 0 0 0 -0 -0 -0 -0 -0 -0 nan
nan -0 -0 -1 -1 -1 -1 -1 -1 -1 -1 -1 -1 -1 -1 -1 -1 -1 -1 -1 -1 -0 -0 -0 0 0 0 0 0 0 -0 -0 -1 -0 -0 -0 -0 -0 -0 -0 -0 -0 -0 -0 -0 -0 -0 -0 -0 -0 -1 -0 -0 -0 -0 -0 0 0 0 0 0 0 0 0 0 0 0 -0 -0 -0 -0 -0 0 nan
nan -0 -0 -0 -0 -0 -0 -0 -1 -1 -1 -1 -1 -1 -0 -0 -0 -0 -0 -0 -0 -0 -0 -0 0 0 0 0 0 0 -0 -0 -0 -0 -0 0 -0 -0 -0 -0 -0 -0 -0 -0 -0 -0 -0 0 -0 -0 -0 -0 -0 -0 -0 -0 -0 0 0 0 0 0 0 0 0 0 0 0 0 0 -0 -0 -0 nan
nan -0 -0 0 0 -0 -0 -0 -0 -0 -0 -0 -1 -1 -1 -1 -0 -0 -0 -0 -0 -0 -0 -0 -0 0 0 -0 0 0 -0 -0 -0 -0 0 0 0 -0 -0 -0 -0 -0 -0 -0 -0 -0 -0 0 0 -0 -0 -1 -0 -0 -0 0 0 0 0 0 0 0 0 0 0 0 0 0 0 0 0 -0 -0 nan
nan 0 -0 0 0 -0 -0 -0 -0 -0 -0 -0 -0 -0 -1 -1 -1 -1 -1 -0 -0 -0 -0 -0 -0 0 -0 -0 -0 -0 -0 -0 -0 -0 -0 0 0 0 -0 -0 -0 -0 -0 -0 -0 -0 0 0 -0 -0 -1 -1 -0 -0 -0 -0 0 0 0 0 0 0 0 0 0 0 0 0 0 0 0 0 0 nan
nan nan nan nan nan nan nan nan nan nan nan nan nan nan nan nan nan nan nan nan nan nan nan nan nan nan nan nan nan nan nan nan nan nan nan nan nan nan nan nan nan nan nan nan nan nan nan nan nan nan nan nan nan nan nan nan nan nan nan nan nan nan nan nan nan nan nan nan nan nan nan nan nan nan
Wind_Speed
29 28 29 29 30 30 29 29 30 30 30 30 29 29 29 31 35 36 36 36 37 36 34 34 35 34 33 34 35 35 37 38 36 35 37 40 41 41 40 39 36 33 33 33 32 33 34 35 36 36 35 36 35 34 33 33 33 33 32 32 33 31 31 31 30 29 30 30 29 31 32 30 31 34
30 30 30 31 32 31 30 31 31 30 30 30 29 29 30 32 36 37 36 37 36 33 32 33 33 33 32 31 33 35 37 39 37 32 32 37 43 44 41 41 39 35 34 33 33 33 34 35 36 37 37 38 38 37 36 35 35 35 35 34 32 32 33 34 32 30 31 31 31 32 33 29 29 32
33 34 33 34 35 34 32 31 33 32 30 29 29 30 30 31 33 34 35 39 41 37 33 33 33 35 36 35 35 36 37 39 40 37 32 30 35 42 42 41 40 37 35 34 33 33 33 34 36 37 38 39 39 39 38 37 36 36 36 35 33 32 32 33 33 32 31 31 31 31 30 30 30 30
34 34 35 36 36 37 35 35 35 34 31 31 32 34 36 35 36 36 36 40 46 45 39 37 37 36 36 38 39 41 41 40 42 44 40 31 29 36 42 43 41 39 38 35 34 34 33 34 35 36 38 39 39 39 39 38 38 37 36 36 34 34 33 31 31 31 31 31 30 30 30 29 30 30
36 35 36 37 37 35 35 35 34 33 32 33 34 35 37 39 40 40 41 44 48 50 46 42 42 40 37 37 38 39 41 42 41 45 46 41 34 34 39 43 43 41 40 37 33 34 35 34 34 35 36 38 38 39 38 38 38 38 37 37 36 35 35 34 32 33 32 31 29 30 30 29 28 29
35 35 35 36 35 33 33 34 34 34 34 34 35 35 35 37 38 38 39 41 44 49 50 46 47 48 46 44 42 40 40 40 40 42 45 47 46 40 37 41 44 43 42 40 36 34 35 35 35 34 35 35 37 39 39 39 38 37 37 37 36 35 35 35 34 32 31 30 29 30 31 31 30 29
35 34 34 35 34 33 33 34 33 33 33 33 34 35 35 35 37 35 34 36 38 42 45 43 42 44 44 45 45 44 42 41 40 40 42 45 49 46 39 38 42 42 42 41 38 35 35 36 35 35 34 33 34 37 38 37 35 35 35 34 32 32 35 36 33 30 30 31 31 31 31 31 30 30
34 34 34 35 34 32 33 34 34 33 33 33 32 33 34 34 35 34 33 34 35 37 40 40 38 37 36 35 36 39 41 42 42 41 40 41 45 48 46 41 40 41 42 42 39 35 36 37 36 35 35 32 31 33 35 34 33 32 32 31 30 30 32 35 35 35 38 37 33 32 32 31 31 31
35 34 34 34 33 32 33 34 34 33 33 33 33 34 35 34 34 34 34 33 34 35 39 42 42 41 40 37 34 33 35 39 43 44 42 41 41 44 47 46 43 40 41 43 41 36 35 37 37 36 35 32 30 31 31 33 36 34 30 30 32 32 31 34 37 41 44 42 37 34 33 31 32 32
35 34 34 34 33 33 34 35 34 34 34 35 36 36 36 36 36 37 37 36 36 37 40 42 43 43 43 43 42 38 33 32 37 42 45 44 42 41 43 44 43 42 42 42 42 39 37 36 37 37 34 31 30 30 30 31 34 37 34 31 32 33 34 37 40 44 46 45 42 39 36 33 32 32
35 35 35 35 35 34 36 36 36 36 36 37 38 38 38 39 39 39 40 39 38 38 39 40 40 40 39 39 42 43 41 36 35 37 42 46 44 42 42 41 39 39 40 40 40 40 38 37 37 37 34 32 30 30 29 30 32 36 39 38 36 37 40 43 44 45 46 45 42 39 37 36 34 33
37 37 37 38 38 38 38 38 37 37 39 40 41 40 40 40 41 41 41 40 39 39 39 40 40 39 39 38 38 38 40 43 42 36 36 43 45 43 44 44 39 36 37 39 39 39 39 38 38 38 37 34 32 30 29 31 32 34 37 37 36 37 40 41 41 40 39 38 36 35 34 35 35 35
39 40 40 41 41 41 40 38 37 38 39 40 42 41 40 41 41 42 42 41 41 40 40 41 40 39 40 41 39 36 36 42 47 41 35 38 42 42 44 47 44 40 38 40 40 40 41 41 40 39 39 39 37 34 31 31 34 36 36 34 34 35 35 35 35 35 34 33 33 33 33 33 34 35
41 41 42 43 43 42 41 40 39 39 40 40 42 42 42 42 43 43 43 43 43 42 42 43 42 40 42 43 41 40 39 40 44 47 43 40 39 40 43 45 45 43 39 38 39 40 41 41 41 39 38 41 42 40 37 35 35 37 37 35 34 34 34 33 34 34 33 33 33 33 34 34 34 35
42 42 42 43 43 43 42 40 40 40 41 41 41 42 43 44 44 45 46 47 46 45 46 46 45 43 46 47 46 44 43 40 40 45 48 45 41 39 39 41 42 42 39 36 37 40 39 39 40 39 38 41 44 42 39 37 36 38 39 38 35 34 34 34 34 34 34 34 34 35 35 36 37 37
40 40 41 42 42 42 42 41 41 41 42 42 42 43 44 45 46 47 49 51 51 50 50 49 49 48 48 49 49 47 44 41 40 41 46 49 46 41 37 37 39 39 37 35 37 39 39 38 38 39 41 44 44 41 38 37 36 36 38 38 36 34 33 34 35 35 35 36 35 35 36 36 37 37
37 38 38 39 40 40 40 40 41 41 41 42 42 44 45 47 48 49 49 50 52 54 54 53 52 52 50 50 51 49 45 43 42 41 42 47 49 46 41 38 39 40 37 32 33 36 38 39 39 40 41 39 38 37 37 36 33 32 31 31 30 30 30 32 34 34 34 34 34 35 35 35 35 34
35 35 36 37 38 38 38 38 39 40 41 42 44 46 47 49 50 50 49 49 50 52 54 55 56 54 53 53 54 52 48 46 46 44 41 43 47 49 45 40 38 42 40 32 30 33 35 36 38 38 36 34 34 36 36 33 31 30 29 29 28 28 29 31 31 32 32 32 32 33 33 33 33 33
33 33 34 36 38 39 39 39 38 39 42 44 47 48 49 50 50 50 51 50 50 51 52 53 55 54 54 55 56 54 52 50 50 49 46 43 44 47 47 43 38 39 42 37 33 33 33 33 35 34 31 31 32 34 35 34 32 31 31 30 28 28 30 30 31 32 31 31 31 32 32 32 33 33
32 33 35 37 38 39 40 39 38 38 41 45 48 50 51 51 51 52 52 51 50 51 52 51 50 50 50 50 51 51 51 51 51 51 49 47 46 46 46 45 41 37 41 42 37 32 29 30 34 33 30 31 33 34 36 36 35 33 31 30 28 28 29 30 31 32 31 31 32 32 32 32 32 32
33 34 36 37 38 38 40 39 38 37 39 44 48 50 51 52 52 52 52 51 50 50 49 49 48 47 47 46 46 44 44 45 47 48 50 50 50 47 44 45 42 37 37 40 37 32 29 28 31 33 33 35 36 36 37 37 35 32 29 27 28 28 28 30 30 31 31 31 31 31 30 30 29 29
36 38 38 37 38 40 40 39 38 38 41 45 49 50 51 51 51 51 51 51 50 48 46 44 44 46 47 48 47 44 41 41 43 46 50 50 48 46 46 46 42 36 35 37 34 31 30 28 28 29 30 33 37 37 37 36 34 31 27 25 27 28 28 29 29 29 29 29 29 29 29 28 27 27
40 40 40 39 38 39 39 39 40 41 43 47 49 50 50 48 48 49 49 49 48 47 46 44 42 43 44 44 45 45 43 43 44 46 48 49 48 47 46 46 42 33 31 34 33 30 30 28 26 28 30 33 38 39 37 34 33 32 29 27 26 26 26 26 27 27 27 27 27 27 27 27 27 27
43 42 41 40 40 39 39 39 40 42 44 46 48 50 50 48 49 50 49 46 45 44 45 44 43 43 42 41 42 43 43 43 45 47 46 47 50 49 45 45 45 36 28 29 31 30 29 29 29 32 35 36 36 35 32 28 26 26 27 28 27 24 23 24 25 26 26 25 26 26 26 27 27 29
42 42 42 43 41 39 37 36 37 40 42 44 48 50 50 49 49 48 46 44 42 40 40 42 43 43 42 41 40 40 39 38 42 46 46 45 48 50 48 47 48 42 33 29 30 29 29 31 32 34 36 37 36 34 29 22 19 18 21 25 26 23 21 21 22 23 24 25 25 26 26 27 27 28
42 43 44 42 40 38 37 38 39 42 43 44 47 48 47 46 44 41 40 41 40 37 37 38 39 39 40 40 39 39 38 35 37 43 45 44 45 48 49 48 47 44 38 34 33 32 32 32 32 32 32 32 32 31 29 24 18 15 17 22 24 23 21 18 18 19 19 20 20 20 22 24 25 25
43 43 42 40 41 41 43 43 43 43 43 42 42 42 41 39 36 32 30 32 34 34 33 34 36 37 38 38 38 38 37 33 33 37 41 42 43 44 46 48 47 45 42 38 34 33 32 31 30 27 26 26 27 27 27 25 20 15 18 22 22 23 22 18 17 16 15 14 13 14 16 19 21 22
41 39 38 40 42 42 40 38 35 33 34 34 34 35 34 31 27 24 23 23 26 29 31 32 34 36 37 37 37 36 35 32 30 31 34 35 37 37 39 42 43 43 42 38 33 31 31 30 27 24 23 23 24 25 24 23 20 18 18 20 20 21 21 18 16 16 15 14 13 14 17 19 20 21
36 36 38 40 39 36 31 27 24 22 23 25 26 27 27 26 24 24 24 23 23 27 30 32 34 36 36 35 35 35 35 33 31 30 30 29 30 31 33 36 39 40 38 35 31 30 30 27 23 21 21 22 24 24 22 20 20 18 16 18 20 19 17 16 15 14 14 14 14 14 15 16 17 18
36 38 40 38 35 30 24 20 18 17 17 20 22 24 25 26 27 27 29 28 27 28 31 32 34 34 34 33 34 33 32 32 31 29 30 30 31 32 33 35 36 35 32 30 29 29 28 24 20 21 24 25 26 26 22 19 19 18 16 18 21 19 16 16 16 13 13 14 13 12 10 9 12 14
38 40 38 33 29 25 19 16 15 14 14 15 16 17 17 19 21 24 28 32 32 30 30 30 31 31 30 30 30 24 20 22 24 27 29 32 32 33 35 34 32 29 27 25 26 27 26 23 22 23 26 27 27 27 24 20 17 16 16 18 20 20 18 17 16 14 15 13 10 10 9 8 10 12
39 36 31 27 24 20 16 15 14 13 14 15 13 12 12 13 14 17 20 24 29 30 29 28 27 27 26 26 22 17 17 17 20 24 27 30 32 32 32 30 27 25 25 23 23 24 24 24 24 24 24 26 28 27 26 23 19 16 16 18 19 17 15 14 15 17 17 13 10 10 10 9 9 11
36 31 25 22 21 20 19 19 18 16 16 18 17 14 12 13 15 15 12 11 19 24 26 26 25 23 22 20 15 18 20 17 18 21 21 24 26 26 26 26 25 26 26 23 22 22 22 24 27 25 22 23 23 22 23 25 24 20 17 17 17 14 12 14 16 17 16 14 12 11 10 10 9 10
28 25 20 19 21 22 23 23 23 22 21 21 21 18 15 16 16 15 12 6 9 14 18 21 22 21 18 13 12 17 20 19 19 19 18 19 20 21 23 24 25 26 26 24 24 23 21 24 29 29 27 24 20 17 19 22 25 23 19 16 16 14 13 14 14 14 15 14 13 11 9 9 9 8
22 21 19 19 20 22 24 25 25 26 25 24 24 22 19 17 15 14 13 9 2 7 10 13 15 15 13 11 10 13 16 17 17 17 18 19 20 20 22 23 25 25 24 23 26 25 20 21 27 28 28 26 21 18 18 20 22 21 19 17 15 13 13 13 12 12 13 12 12 13 12 10 8 8
19 20 20 21 22 22 23 24 25 26 26 25 24 23 22 19 15 13 11 9 4 2 7 9 10 11 13 12 11 12 13 14 15 16 18 21 21 22 22 22 23 24 21 21 26 27 24 24 26 24 22 21 19 18 19 19 19 19 19 16 14 13 13 11 8 10 14 11 10 13 14 11 10 9
19 20 21 22 23 23 23 23 24 25 26 25 23 22 21 19 17 14 10 6 4 1 4 6 6 8 9 10 11 12 12 15 17 17 19 21 22 22 22 21 23 24 20 19 25 30 29 27 26 22 18 18 18 17 16 17 19 20 18 16 14 13 13 13 11 12 14 13 10 10 10 10 10 8
22 22 22 22 23 23 22 23 23 24 24 24 22 21 19 18 16 13 9 6 4 1 3 6 8 9 9 10 12 12 12 15 19 20 21 22 23 23 23 22 22 23 21 21 26 30 28 25 23 21 18 17 17 16 14 15 19 21 19 18 17 15 13 14 14 11 11 12 11 9 7 6 6 4
24 24 24 23 23 22 22 23 23 23 23 23 22 21 19 17 15 12 10 8 7 4 3 7 10 11 11 11 11 12 13 15 19 21 22 24 24 23 23 23 22 22 22 23 25 24 21 20 21 21 21 18 15 14 12 13 18 23 20 17 18 16 12 13 14 12 11 11 10 7 6 6 6 4
24 24 24 24 23 23 23 23 23 22 22 21 20 20 19 17 16 14 12 10 9 8 5 7 10 13 14 12 10 11 14 16 18 19 21 23 25 25 23 23 23 23 24 24 22 20 19 19 18 20 21 17 11 10 10 11 16 22 20 17 19 16 11 12 15 14 14 13 11 8 8 8 6 5
25 24 25 25 24 23 23 23 22 22 21 20 19 18 17 16 15 14 13 11 10 10 7 6 9 12 14 14 11 11 14 16 16 17 19 21 23 23 22 23 24 24 23 23 22 20 20 18 14 15 19 16 8 8 12 14 20 23 20 19 20 16 11 12 13 12 13 13 9 6 8 8 5 2
25 25 25 25 24 24 23 23 22 21 21 20 20 18 17 16 14 13 12 9 8 8 8 6 7 9 13 14 11 11 14 15 15 16 18 19 22 22 21 22 25 25 22 21 21 20 18 15 12 13 19 18 12 10 14 18 23 24 22 20 18 14 12 13 11 9 11 12 8 5 7 8 7 3
24 24 24 25 24 24 23 22 22 21 21 20 20 19 18 17 14 12 11 9 7 6 6 5 5 7 10 12 11 12 14 15 15 17 19 21 22 21 19 20 23 23 21 20 20 17 15 15 14 16 20 20 15 12 15 20 24 26 23 19 17 13 12 12 9 8 10 12 9 6 7 8 8 5
24 23 24 24 24 24 23 22 22 21 21 20 19 18 18 17 16 14 12 11 8 6 5 3 3 5 8 10 11 12 15 17 16 18 21 23 22 19 17 18 19 21 22 22 21 17 15 16 17 19 22 21 14 10 14 21 26 26 23 20 17 15 13 11 9 9 10 10 8 6 5 5 6 6
23 23 23 23 23 23 23 22 21 21 20 20 19 19 18 19 18 15 12 11 9 7 6 4 2 2 6 9 12 13 15 17 18 19 22 23 22 19 18 18 18 19 20 20 19 17 18 19 20 22 23 20 13 10 14 19 23 24 22 18 17 16 14 10 9 10 11 12 10 8 8 9 10 12
Wind_Direction
297 296 299 297 290 285 279 274 270 269 268 265 264 266 268 273 280 284 283 279 276 275 273 272 271 269 266 266 264 259 256 256 263 272 273 272 271 271 270 265 260 257 258 258 256 254 251 247 244 243 243 243 243 243 242 242 243 244 241 238 238 239 240 240 242 243 242 242 244 244 241 244 247 241
287 286 288 288 286 286 286 282 278 274 272 270 268 269 267 268 272 277 282 281 276 275 275 271 270 269 266 264 266 263 258 254 255 263 270 273 272 269 267 266 262 256 256 257 257 255 252 249 246 243 242 242 243 244 245 245 244 245 246 242 239 241 240 238 240 242 242 242 243 242 241 246 249 243
279 281 281 279 278 280 279 280 280 278 276 273 270 267 263 261 262 266 276 281 275 271 274 274 270 270 267 265 266 266 262 255 251 254 262 271 275 270 264 263 262 259 257 257 256 254 252 250 247 244 243 242 242 242 242 243 243 243 245 243 240 243 243 241 241 242 243 244 245 246 247 250 248 245
280 280 280 277 277 278 277 276 276 276 276 272 266 261 259 257 257 261 271 279 275 269 270 272 270 270 271 269 267 267 266 260 253 252 256 262 273 273 265 261 259 259 258 256 254 254 253 251 249 246 244 243 242 240 240 241 242 241 241 241 240 243 244 242 241 242 243 243 245 247 250 251 250 248
282 281 281 279 277 278 278 276 274 272 270 269 267 265 264 262 261 263 269 275 276 273 270 270 269 267 270 271 268 267 268 266 260 255 254 256 263 271 269 263 259 257 257 256 253 254 254 251 250 248 245 243 242 240 239 240 241 240 239 238 238 241 242 241 240 240 241 242 245 247 248 249 250 249
287 286 285 283 282 280 277 276 274 272 270 269 270 269 270 270 268 268 270 273 276 276 273 273 272 269 267 267 267 266 267 269 268 263 259 257 260 265 270 267 262 258 257 257 254 255 254 250 249 249 245 243 243 240 236 237 241 240 238 237 237 238 238 238 238 239 240 243 246 247 247 247 248 247
288 287 285 283 282 281 278 277 275 274 273 271 271 272 272 273 274 273 271 270 273 276 277 277 277 274 272 269 268 267 266 266 268 267 264 260 259 261 264 267 265 259 258 257 254 254 254 249 247 248 246 242 243 240 235 236 242 239 236 236 236 235 234 233 235 238 239 241 244 245 246 249 250 248
286 285 284 282 282 280 277 277 276 275 276 276 276 276 276 275 274 274 272 269 268 272 275 274 273 273 273 271 269 267 266 263 261 263 265 263 260 259 259 262 265 261 259 258 254 251 252 250 246 245 245 244 242 240 238 239 241 239 236 235 232 232 232 233 235 239 239 240 243 245 247 251 250 247
285 284 282 282 282 280 278 278 277 277 278 279 277 277 276 275 274 274 272 269 267 268 269 269 269 267 266 266 266 266 267 266 261 259 261 262 261 259 257 257 262 262 260 257 254 249 248 248 247 244 243 244 243 241 239 239 239 239 239 237 234 233 235 236 238 240 240 242 245 246 247 251 250 246
286 285 285 285 285 283 281 280 280 281 281 281 278 277 278 278 276 275 274 273 271 268 268 270 272 271 269 267 264 260 261 268 267 262 259 259 260 259 256 254 257 260 259 255 252 249 246 245 246 244 242 242 243 241 240 238 238 238 239 240 239 239 240 240 242 243 243 245 247 248 248 250 251 248
287 287 288 287 287 285 284 284 284 285 285 283 282 280 281 280 278 276 275 276 274 272 271 271 272 274 274 272 268 262 257 259 266 266 260 258 258 256 255 254 254 257 258 254 250 248 246 244 244 243 242 241 241 241 239 238 237 237 237 239 241 243 244 245 246 247 247 248 249 249 250 250 250 250
291 290 289 289 288 287 287 287 287 287 286 285 283 283 282 280 276 274 273 273 272 271 271 271 272 273 274 273 273 270 263 257 258 261 260 257 256 255 253 251 252 258 258 254 250 248 245 242 240 241 244 244 241 240 239 236 235 235 236 237 240 242 245 246 247 248 248 249 249 249 250 250 249 249
291 291 290 289 290 290 290 289 288 287 287 284 282 282 281 278 275 272 271 270 269 268 267 268 269 270 270 271 271 271 267 259 254 254 259 261 257 255 253 250 250 256 258 253 249 247 243 239 237 239 244 247 244 239 235 233 232 233 235 237 239 241 243 245 246 247 247 248 249 249 250 250 249 249
291 291 290 289 290 291 291 289 287 287 287 285 283 282 280 276 273 271 269 268 266 265 264 264 265 264 265 267 268 267 268 265 258 253 256 263 263 257 252 249 248 250 251 248 244 242 241 239 236 236 242 248 247 240 237 237 235 233 234 237 240 241 244 245 246 246 247 248 249 250 249 249 249 249
293 293 291 291 291 291 289 287 287 287 286 286 285 284 281 278 273 270 267 266 265 263 261 262 262 261 262 265 266 265 267 268 265 257 254 259 267 265 255 248 246 245 245 244 241 239 239 237 234 234 240 247 247 243 242 243 241 239 237 237 239 242 245 246 247 247 248 249 250 249 250 250 250 250
295 293 292 291 289 288 288 287 287 286 287 288 287 286 285 282 278 273 270 267 265 263 261 261 260 259 260 263 264 264 264 266 268 263 256 254 260 268 264 253 246 244 243 242 238 236 236 235 234 236 240 244 245 246 247 247 245 244 244 243 244 247 249 248 248 248 249 249 249 249 249 250 250 249
297 294 292 290 287 286 286 285 284 284 286 288 288 286 285 282 279 278 275 271 267 263 261 260 260 260 260 261 262 262 262 263 265 265 261 255 254 261 266 261 251 246 243 241 237 233 232 232 234 237 240 244 247 248 248 248 248 251 254 255 254 251 249 248 247 248 248 248 247 247 247 247 247 246
301 298 295 291 289 289 288 286 284 283 283 284 283 282 280 279 278 277 277 275 272 267 262 260 260 260 260 260 261 262 260 260 260 262 262 258 253 255 261 264 258 249 243 242 240 236 233 230 231 235 239 242 245 247 249 251 253 257 261 261 255 249 247 247 246 246 246 246 245 245 245 245 244 244
304 302 298 292 289 288 287 287 286 284 282 281 280 279 278 278 277 277 276 276 274 271 267 264 263 262 260 259 259 259 258 256 257 259 261 259 254 254 259 264 263 253 244 240 238 237 234 228 227 231 233 232 236 242 249 253 257 260 262 259 254 249 248 248 246 245 245 244 243 243 243 243 243 244
305 303 299 294 291 288 286 286 287 286 283 280 277 276 276 277 276 275 276 278 277 275 273 271 268 266 263 260 259 259 257 255 256 258 259 258 254 253 258 262 264 258 246 238 234 234 233 227 226 229 230 230 234 240 247 253 257 260 262 261 257 253 248 246 245 244 243 243 242 243 243 243 243 244
307 304 302 298 294 289 287 287 287 287 284 281 278 276 276 276 275 274 276 277 277 277 275 272 270 268 266 264 263 263 259 256 256 254 253 254 253 250 253 257 261 260 248 238 233 232 234 233 232 234 235 237 242 245 249 254 257 259 260 260 255 251 247 245 244 242 242 241 241 242 242 241 241 241
309 308 307 304 298 292 290 290 289 287 285 284 282 280 278 277 276 276 277 275 274 275 273 270 267 265 265 266 265 263 258 254 253 249 248 251 251 247 245 249 255 258 248 237 234 235 237 235 234 235 239 244 249 251 252 255 259 259 256 251 248 246 245 244 242 241 240 240 239 239 239 238 238 239
312 310 308 306 302 297 294 293 291 287 286 285 284 281 279 279 279 280 281 278 274 272 271 269 266 261 261 262 261 259 256 252 250 248 247 248 246 243 241 243 248 253 245 235 233 235 236 235 236 241 246 249 253 255 257 259 260 256 248 240 240 243 242 241 241 239 238 238 237 236 235 235 235 235
312 310 308 305 303 299 295 292 288 285 284 282 281 281 281 281 281 282 282 279 275 272 270 269 268 264 263 264 261 258 256 252 248 247 246 243 240 241 241 241 242 245 243 236 232 233 237 243 248 249 247 248 253 259 262 262 260 254 243 234 234 239 239 237 236 236 235 235 235 235 234 233 232 233
310 308 306 304 303 302 298 294 288 285 283 281 282 284 284 282 282 281 278 276 274 273 271 268 266 263 263 265 266 264 261 255 249 246 245 240 237 238 238 238 240 244 246 241 236 238 244 248 250 248 245 246 251 256 258 255 250 250 239 228 229 237 238 231 228 229 232 233 235 237 236 234 233 233
310 309 307 306 308 310 307 303 298 293 289 285 284 284 280 279 282 281 275 271 270 270 269 265 260 259 260 262 265 265 263 257 247 244 244 240 235 234 234 236 238 241 244 244 243 244 247 247 246 244 242 244 248 252 251 244 240 239 228 222 226 232 233 230 227 230 233 232 231 232 233 234 233 232
313 312 310 311 314 313 308 303 298 293 289 286 283 280 278 281 287 287 277 269 265 264 263 259 255 256 258 260 262 262 261 255 244 240 241 240 236 234 232 231 233 237 241 243 243 244 243 242 241 240 241 243 246 246 243 238 236 230 224 226 225 222 226 232 229 226 231 232 229 226 226 229 231 232
315 313 310 311 311 309 304 299 295 293 291 286 280 279 280 283 286 286 278 268 262 259 257 254 254 257 260 260 261 261 260 255 244 237 238 238 236 233 230 229 231 235 238 237 236 238 238 236 237 240 244 243 238 236 235 234 232 231 230 228 222 219 227 232 224 219 225 230 230 228 227 227 226 226
314 309 311 313 313 311 308 307 309 311 305 296 288 284 283 280 277 276 273 268 261 255 252 251 253 258 261 261 262 264 264 257 247 238 234 231 227 226 227 227 228 228 227 227 229 232 233 233 234 235 236 233 226 225 230 231 230 232 231 221 217 222 227 228 228 228 225 223 225 227 229 226 220 218
312 313 318 320 318 315 318 327 335 334 320 305 296 291 287 281 276 271 266 261 257 253 251 251 253 258 263 266 269 272 267 254 240 229 222 218 218 220 220 216 214 215 219 222 226 228 229 228 226 224 226 225 219 218 224 224 218 219 217 207 210 218 220 225 234 227 208 209 215 215 215 208 203 208
316 320 322 320 317 315 322 337 345 343 335 320 307 303 304 299 290 280 269 259 252 250 251 254 258 262 268 275 275 265 246 231 221 215 213 213 213 214 212 208 208 212 217 221 224 227 226 220 216 219 223 222 215 213 218 219 212 207 202 198 207 216 218 223 225 206 194 196 192 187 200 205 199 203
318 321 319 318 322 325 334 344 347 348 351 353 351 349 348 340 326 309 287 260 247 245 247 254 261 265 271 279 272 235 209 209 208 206 210 212 209 206 206 207 210 213 214 217 220 221 218 212 212 216 217 216 215 214 218 224 223 210 201 206 216 218 211 205 199 192 196 200 186 187 212 216 200 199
319 318 318 327 335 343 353 356 358 0 2 7 15 17 9 5 358 346 325 271 245 242 243 248 256 264 270 275 253 209 200 204 200 197 202 206 204 204 205 209 213 212 212 212 208 205 207 210 213 214 211 211 216 217 219 224 225 217 212 215 216 207 192 187 187 190 200 205 198 202 215 211 198 197
317 316 326 342 347 354 2 2 3 7 7 9 16 20 20 23 22 16 9 338 255 244 244 248 253 258 260 254 222 199 197 197 195 195 197 198 200 202 203 207 212 212 213 211 200 191 195 206 211 215 217 217 221 220 216 216 218 218 217 209 196 185 181 183 187 194 199 196 193 196 193 182 180 184
322 326 340 351 352 357 3 3 3 7 8 8 12 15 21 29 32 31 30 25 314 235 235 238 242 241 231 215 204 201 197 193 195 198 199 201 204 204 203 205 209 211 215 214 200 189 188 198 205 213 218 220 222 224 218 213 211 211 207 193 175 167 174 184 192 194 188 181 183 187 178 167 174 190
336 342 350 355 357 358 0 1 2 5 7 9 9 10 15 24 30 34 36 33 23 234 219 216 216 219 218 215 216 216 207 201 200 201 205 209 209 208 208 208 206 208 215 218 208 199 198 201 206 211 213 211 215 220 219 213 206 198 189 179 165 157 166 177 178 176 176 178 183 183 178 184 204 212
351 352 354 357 358 358 358 359 1 2 5 8 8 6 7 13 19 26 33 32 20 324 247 242 239 234 234 237 239 237 228 217 209 207 210 212 212 212 211 207 203 205 214 218 211 205 202 203 208 211 206 202 210 218 216 211 203 190 176 165 155 152 162 167 161 161 170 179 190 192 191 201 209 203
3 1 359 359 359 357 358 358 359 1 4 5 5 4 2 2 6 11 18 18 11 331 245 262 273 270 260 254 251 252 245 225 214 213 213 211 210 210 207 202 200 203 207 209 206 204 205 207 211 212 206 203 209 212 205 202 196 184 170 159 154 152 159 166 164 163 167 174 187 200 200 190 185 179
8 6 4 2 360 358 358 359 359 0 3 4 4 1 357 355 354 353 355 357 355 344 256 246 259 268 268 261 255 253 243 222 212 212 213 211 210 208 203 200 199 199 200 199 197 201 208 213 215 214 209 202 201 200 199 201 192 181 174 167 160 157 164 173 171 170 173 171 167 164 156 153 157 162
10 9 6 3 2 1 0 360 359 360 1 3 3 2 358 352 349 347 345 341 338 338 311 251 248 259 264 264 258 245 232 220 213 213 214 211 210 208 204 201 199 198 196 193 191 198 206 208 211 210 201 191 191 207 215 207 188 180 176 169 163 163 170 172 167 167 169 166 161 167 184 189 175 166
7 8 6 4 4 3 2 1 360 360 2 2 1 1 1 355 350 349 348 340 332 332 321 275 253 254 257 260 255 234 223 219 215 212 209 203 199 200 201 200 199 198 194 191 194 201 204 207 212 205 192 184 192 219 212 192 177 173 167 161 164 169 167 161 165 176 180 174 167 176 193 191 173 166
5 6 5 4 4 3 3 3 0 360 2 3 1 1 1 358 353 349 347 339 329 324 315 288 263 253 253 256 251 230 220 219 215 210 201 187 181 187 194 195 195 195 193 193 198 203 207 214 216 198 187 186 188 191 187 178 170 166 160 158 165 174 175 172 176 184 183 179 172 158 168 180 189 220
3 4 4 4 3 3 4 3 3 3 3 4 4 3 1 359 356 352 349 347 340 329 320 298 264 243 243 250 248 231 218 214 211 209 202 186 177 180 187 190 192 195 196 200 205 210 215 215 206 191 188 190 186 180 178 174 167 162 160 162 167 170 173 175 170 159 166 174 176 171 178 190 198 203
0 2 4 3 3 4 4 3 4 5 5 5 7 7 5 3 1 357 354 355 358 360 357 338 270 237 235 241 244 235 221 212 207 207 204 196 189 189 192 192 192 195 199 203 208 212 208 197 188 185 186 185 182 179 175 171 167 162 162 166 168 160 154 155 153 151 156 156 148 143 148 152 150 141
357 0 4 4 3 3 4 4 5 6 7 7 9 11 11 9 6 2 356 354 2 22 38 38 18 262 240 231 229 230 225 214 206 202 201 201 200 199 201 202 198 196 200 204 205 202 194 183 181 186 186 183 182 181 174 172 170 165 162 163 161 153 147 152 161 157 145 134 126 123 122 121 120 117
Height
1451 1449 1448 1447 1446 1445 1445 1445 1444 1444 1443 1443 1442 1442 1442 1440 1434 1428 1423 1421 1421 1423 1424 1424 1424 1426 1427 1427 1427 1427 1426 1427 1428 1428 1427 1426 1424 1424 1424 1425 1426 1427 1428 1428 1429 1430 1431 1432 1434 1435 1436 1437 1438 1439 1440 1441 1442 1443 1445 1446 1448 1449 1451 1452 1453 1455 1456 1457 1458 1458 1459 1460 1460 1462
1448 1446 1445 1444 1442 1441 1441 1440 1439 1439 1438 1438 1438 1437 1437 1436 1433 1428 1422 1416 1417 1420 1420 1420 1421 1421 1422 1423 1422 1422 1421 1421 1422 1422 1421 1421 1420 1420 1419 1419 1420 1421 1423 1423 1424 1425 1426 1427 1429 1430 1431 1431 1432 1434 1435 1436 1437 1438 1439 1441 1442 1443 1445 1446 1448 1449 1450 1451 1452 1453 1454 1454 1455 1457
1444 1443 1441 1440 1438 1437 1437 1436 1434 1434 1434 1434 1433 1432 1431 1430 1428 1426 1422 1413 1410 1416 1417 1416 1418 1417 1416 1417 1417 1415 1415 1416 1416 1416 1416 1416 1416 1415 1414 1414 1414 1415 1417 1418 1418 1419 1421 1422 1423 1424 1425 1426 1427 1428 1430 1431 1432 1434 1435 1436 1437 1438 1439 1441 1443 1444 1445 1446 1447 1448 1449 1450 1450 1452
1439 1438 1436 1435 1434 1433 1432 1431 1430 1429 1429 1429 1428 1426 1425 1425 1423 1422 1420 1412 1405 1409 1413 1412 1412 1413 1413 1413 1412 1411 1410 1410 1411 1410 1410 1410 1411 1411 1410 1409 1409 1409 1411 1412 1413 1414 1415 1416 1417 1419 1420 1421 1421 1423 1425 1426 1427 1429 1430 1431 1432 1433 1434 1436 1438 1439 1440 1442 1443 1444 1445 1445 1446 1447
1435 1433 1431 1429 1429 1429 1427 1426 1425 1425 1424 1423 1422 1422 1420 1420 1419 1418 1417 1411 1403 1402 1406 1408 1407 1408 1409 1407 1407 1407 1406 1405 1406 1405 1404 1405 1405 1406 1406 1404 1404 1404 1405 1406 1407 1408 1409 1410 1412 1413 1414 1415 1416 1417 1419 1421 1422 1423 1425 1426 1427 1428 1430 1431 1433 1434 1435 1436 1438 1439 1440 1441 1442 1443
1429 1428 1426 1424 1423 1423 1422 1421 1420 1419 1419 1418 1417 1416 1416 1414 1414 1414 1413 1410 1404 1398 1399 1403 1402 1402 1403 1402 1401 1403 1402 1402 1403 1402 1400 1399 1399 1400 1401 1400 1399 1399 1399 1400 1402 1403 1404 1405 1406 1407 1409 1410 1411 1412 1413 1416 1417 1418 1420 1421 1422 1423 1424 1426 1428 1429 1430 1431 1433 1434 1435 1437 1438 1439
1425 1423 1421 1419 1419 1419 1417 1415 1415 1414 1414 1414 1412 1411 1411 1410 1408 1409 1409 1406 1403 1398 1395 1397 1397 1396 1396 1396 1396 1398 1398 1398 1398 1397 1396 1395 1393 1394 1395 1395 1394 1394 1394 1395 1396 1397 1398 1399 1400 1401 1403 1404 1406 1407 1408 1410 1412 1413 1414 1415 1416 1417 1418 1420 1421 1423 1424 1426 1427 1429 1430 1432 1433 1434
1420 1419 1417 1415 1414 1414 1412 1410 1410 1410 1409 1408 1408 1406 1406 1405 1403 1403 1403 1402 1400 1397 1393 1392 1393 1391 1391 1391 1391 1392 1392 1392 1392 1391 1391 1390 1389 1388 1389 1389 1389 1389 1389 1390 1390 1391 1393 1394 1395 1396 1398 1399 1401 1402 1403 1405 1406 1407 1408 1409 1410 1411 1411 1413 1415 1416 1418 1420 1422 1423 1425 1427 1428 1429
1416 1414 1412 1411 1410 1410 1408 1406 1405 1405 1404 1403 1403 1402 1400 1400 1399 1398 1398 1397 1396 1394 1390 1387 1387 1387 1385 1385 1386 1387 1387 1386 1386 1385 1385 1385 1384 1383 1383 1383 1383 1384 1384 1384 1385 1386 1387 1389 1390 1391 1393 1394 1395 1397 1399 1400 1400 1402 1403 1403 1404 1405 1406 1407 1409 1410 1412 1415 1416 1418 1419 1421 1422 1423
1411 1410 1408 1407 1406 1405 1403 1402 1401 1400 1400 1399 1398 1397 1395 1395 1394 1393 1392 1391 1391 1389 1387 1384 1382 1381 1380 1380 1380 1382 1383 1381 1380 1380 1379 1378 1379 1378 1378 1377 1378 1379 1379 1378 1379 1380 1382 1383 1385 1386 1388 1389 1390 1392 1394 1395 1396 1397 1398 1399 1399 1400 1401 1402 1404 1405 1407 1409 1411 1412 1413 1414 1415 1416
1406 1405 1404 1402 1401 1400 1399 1397 1396 1395 1394 1393 1392 1391 1390 1390 1389 1387 1386 1386 1385 1383 1382 1380 1377 1375 1375 1375 1374 1375 1377 1377 1375 1375 1374 1371 1372 1373 1372 1372 1373 1374 1373 1373 1374 1375 1376 1378 1380 1381 1383 1384 1386 1387 1389 1390 1391 1392 1393 1394 1395 1396 1397 1398 1399 1401 1402 1403 1405 1406 1407 1408 1409 1410
1402 1400 1399 1398 1396 1395 1394 1392 1391 1390 1389 1388 1386 1386 1385 1385 1383 1382 1381 1380 1379 1378 1376 1374 1373 1372 1370 1369 1369 1370 1372 1371 1369 1370 1369 1366 1366 1368 1367 1367 1368 1369 1368 1368 1368 1370 1371 1373 1375 1376 1378 1379 1381 1382 1384 1385 1386 1387 1389 1390 1390 1391 1392 1393 1395 1396 1397 1398 1399 1400 1401 1402 1403 1403
1397 1395 1393 1392 1390 1389 1388 1387 1386 1385 1384 1383 1381 1380 1380 1379 1378 1376 1376 1375 1374 1373 1371 1369 1368 1368 1365 1364 1364 1365 1365 1364 1363 1364 1365 1362 1361 1362 1362 1361 1362 1363 1364 1363 1363 1364 1365 1367 1369 1371 1372 1374 1375 1377 1378 1379 1381 1382 1384 1385 1386 1387 1388 1389 1390 1391 1392 1393 1394 1394 1395 1396 1397 1398
1391 1390 1388 1386 1385 1383 1382 1381 1380 1378 1378 1377 1375 1374 1374 1373 1372 1371 1370 1369 1368 1367 1365 1364 1363 1362 1360 1358 1359 1359 1358 1359 1359 1359 1359 1358 1357 1357 1356 1355 1356 1358 1359 1358 1357 1358 1360 1362 1363 1365 1367 1369 1370 1371 1372 1373 1375 1376 1378 1380 1381 1382 1383 1384 1385 1386 1386 1387 1388 1389 1389 1390 1391 1392
1386 1385 1383 1381 1379 1378 1376 1374 1373 1372 1371 1370 1369 1368 1367 1367 1366 1365 1363 1362 1361 1361 1359 1357 1357 1356 1353 1352 1353 1353 1353 1354 1354 1354 1354 1353 1352 1352 1350 1349 1349 1352 1354 1354 1352 1353 1355 1356 1358 1360 1362 1363 1364 1366 1367 1368 1370 1371 1372 1374 1375 1377 1378 1379 1379 1380 1381 1382 1382 1383 1383 1384 1385 1386
1381 1379 1377 1375 1373 1371 1369 1368 1366 1365 1364 1363 1362 1361 1360 1360 1359 1359 1357 1355 1354 1353 1351 1349 1349 1348 1347 1346 1346 1347 1348 1349 1349 1348 1348 1348 1347 1346 1345 1344 1344 1346 1349 1349 1347 1348 1349 1351 1353 1355 1356 1358 1359 1361 1362 1363 1365 1366 1367 1369 1370 1371 1371 1372 1373 1374 1375 1375 1376 1377 1377 1378 1379 1380
1377 1374 1371 1369 1367 1365 1364 1362 1361 1359 1357 1356 1355 1354 1353 1352 1351 1351 1350 1348 1347 1347 1345 1343 1340 1341 1341 1340 1339 1341 1344 1344 1343 1343 1343 1343 1342 1341 1341 1340 1340 1342 1345 1344 1343 1343 1344 1346 1347 1349 1351 1353 1355 1356 1357 1358 1360 1362 1363 1364 1364 1364 1365 1366 1367 1368 1368 1369 1370 1371 1372 1373 1374 1375
1372 1369 1367 1364 1362 1360 1359 1357 1356 1354 1352 1350 1348 1347 1346 1344 1343 1342 1341 1341 1340 1340 1339 1336 1333 1333 1335 1332 1331 1335 1338 1338 1337 1337 1338 1338 1338 1337 1336 1336 1336 1337 1339 1340 1339 1338 1339 1341 1343 1344 1347 1349 1351 1351 1352 1354 1356 1357 1357 1358 1358 1359 1359 1360 1361 1362 1362 1363 1365 1366 1367 1367 1369 1370
1367 1365 1363 1360 1357 1355 1353 1352 1350 1348 1346 1344 1341 1339 1338 1336 1336 1335 1333 1333 1332 1331 1330 1328 1325 1326 1326 1325 1325 1327 1329 1330 1330 1331 1332 1333 1333 1333 1332 1331 1331 1331 1333 1335 1335 1333 1335 1338 1339 1340 1343 1345 1347 1348 1349 1350 1351 1352 1352 1352 1353 1354 1354 1355 1356 1356 1357 1359 1359 1360 1361 1362 1363 1364
1362 1360 1358 1355 1353 1351 1348 1346 1344 1342 1340 1338 1335 1332 1331 1329 1328 1326 1326 1325 1324 1322 1320 1319 1318 1317 1318 1318 1317 1318 1320 1322 1323 1325 1326 1327 1328 1329 1328 1326 1326 1326 1327 1329 1330 1330 1331 1334 1336 1337 1340 1342 1343 1344 1345 1346 1346 1347 1347 1347 1348 1348 1349 1349 1350 1351 1352 1354 1354 1355 1356 1357 1358 1360
1357 1355 1353 1351 1348 1345 1342 1340 1338 1337 1334 1331 1329 1326 1324 1323 1321 1319 1318 1317 1316 1314 1312 1311 1310 1309 1309 1310 1310 1312 1314 1315 1316 1318 1318 1318 1321 1324 1323 1322 1322 1322 1322 1324 1326 1326 1328 1330 1332 1335 1337 1339 1339 1340 1341 1341 1342 1342 1342 1343 1343 1343 1344 1344 1345 1347 1348 1349 1350 1351 1352 1354 1355 1357
1353 1350 1347 1345 1342 1339 1336 1333 1332 1330 1328 1325 1322 1320 1317 1315 1313 1311 1310 1308 1306 1305 1305 1304 1303 1303 1303 1303 1304 1306 1308 1310 1311 1312 1309 1310 1314 1317 1317 1317 1318 1319 1318 1319 1322 1323 1324 1327 1330 1332 1334 1335 1335 1335 1336 1336 1337 1337 1338 1338 1339 1339 1340 1341 1341 1342 1344 1345 1346 1347 1349 1350 1352 1354
1347 1344 1341 1339 1336 1333 1330 1327 1325 1323 1321 1318 1315 1313 1310 1308 1305 1304 1302 1299 1297 1297 1296 1296 1296 1296 1297 1297 1297 1298 1300 1302 1304 1305 1304 1305 1308 1309 1310 1313 1315 1315 1314 1315 1318 1319 1321 1324 1327 1330 1331 1330 1329 1330 1332 1332 1332 1332 1333 1334 1335 1335 1336 1337 1338 1339 1340 1341 1342 1344 1345 1347 1349 1350
1341 1338 1335 1332 1329 1327 1323 1321 1318 1316 1314 1312 1308 1306 1304 1302 1298 1296 1294 1291 1290 1289 1288 1288 1288 1288 1289 1290 1290 1291 1292 1294 1295 1296 1298 1300 1301 1303 1306 1308 1310 1311 1311 1312 1315 1317 1318 1321 1324 1326 1327 1326 1325 1326 1327 1327 1327 1327 1328 1329 1330 1331 1332 1333 1334 1335 1336 1338 1339 1340 1341 1343 1344 1345
1337 1333 1329 1326 1322 1319 1316 1313 1311 1308 1306 1304 1301 1299 1297 1293 1290 1287 1286 1284 1283 1283 1282 1282 1282 1282 1282 1283 1283 1284 1285 1285 1287 1289 1291 1293 1295 1298 1301 1303 1305 1307 1308 1310 1312 1314 1316 1318 1320 1321 1323 1322 1322 1322 1323 1323 1323 1323 1323 1325 1326 1328 1329 1329 1330 1331 1333 1334 1335 1336 1337 1338 1340 1341
1332 1328 1324 1319 1315 1312 1310 1307 1304 1301 1298 1296 1293 1290 1288 1284 1282 1281 1279 1277 1277 1277 1277 1277 1276 1277 1276 1276 1276 1277 1277 1278 1280 1282 1284 1287 1289 1292 1295 1298 1300 1303 1305 1307 1309 1311 1312 1313 1315 1317 1318 1318 1319 1319 1319 1320 1320 1320 1320 1321 1323 1324 1325 1326 1327 1328 1329 1330 1331 1331 1333 1334 1336 1337
1326 1322 1318 1313 1310 1307 1304 1301 1298 1294 1291 1288 1285 1282 1280 1278 1276 1275 1273 1271 1271 1271 1272 1272 1272 1272 1271 1271 1271 1271 1271 1271 1273 1276 1279 1282 1285 1287 1290 1293 1296 1299 1302 1305 1306 1307 1308 1310 1311 1313 1314 1315 1316 1316 1316 1316 1317 1318 1318 1319 1320 1321 1323 1324 1325 1326 1327 1327 1328 1328 1330 1331 1332 1333
1322 1317 1314 1310 1307 1303 1299 1295 1291 1287 1284 1281 1279 1276 1275 1274 1272 1270 1269 1267 1267 1267 1268 1268 1267 1267 1266 1266 1265 1265 1265 1266 1269 1271 1274 1277 1280 1283 1286 1289 1293 1296 1299 1301 1302 1304 1305 1307 1308 1310 1311 1312 1313 1313 1313 1314 1314 1315 1316 1316 1317 1319 1320 1321 1322 1323 1324 1325 1325 1326 1327 1328 1329 1330
1318 1314 1311 1306 1302 1298 1293 1289 1284 1281 1278 1276 1274 1272 1270 1269 1268 1267 1266 1265 1265 1264 1264 1264 1263 1262 1262 1261 1261 1260 1261 1262 1265 1267 1270 1273 1277 1280 1284 1287 1290 1293 1295 1297 1299 1300 1302 1304 1306 1307 1308 1309 1310 1311 1312 1312 1312 1313 1313 1314 1315 1316 1318 1319 1320 1321 1322 1322 1323 1324 1324 1325 1326 1327
1314 1310 1306 1301 1297 1293 1290 1285 1281 1278 1275 1273 1271 1268 1266 1264 1263 1262 1261 1261 1261 1261 1260 1260 1260 1259 1258 1258 1258 1257 1257 1258 1260 1264 1267 1271 1274 1278 1281 1284 1287 1289 1292 1294 1295 1297 1299 1301 1303 1304 1305 1306 1307 1309 1310 1310 1310 1311 1311 1312 1313 1315 1316 1317 1317 1318 1319 1320 1321 1322 1322 1323 1324 1325
1309 1305 1302 1298 1295 1291 1287 1283 1280 1276 1273 1270 1267 1265 1262 1260 1258 1256 1255 1255 1256 1257 1257 1257 1257 1257 1257 1256 1256 1255 1255 1256 1258 1261 1265 1268 1272 1275 1278 1281 1283 1286 1288 1291 1292 1294 1296 1298 1300 1301 1302 1302 1304 1306 1307 1307 1308 1309 1309 1310 1311 1313 1314 1315 1315 1316 1317 1318 1319 1320 1321 1322 1322 1323
1306 1303 1300 1296 1293 1289 1284 1280 1277 1274 1271 1268 1264 1262 1259 1257 1255 1252 1250 1249 1251 1253 1255 1255 1256 1256 1256 1256 1255 1255 1255 1256 1258 1261 1264 1267 1270 1273 1276 1278 1281 1283 1285 1288 1290 1291 1294 1296 1297 1298 1299 1300 1302 1304 1305 1305 1305 1307 1308 1308 1310 1311 1312 1313 1313 1314 1316 1317 1318 1319 1320 1321 1321 1322
1304 1301 1298 1294 1290 1286 1282 1278 1275 1272 1269 1266 1263 1260 1258 1256 1254 1251 1249 1248 1249 1251 1253 1254 1255 1255 1255 1255 1255 1255 1255 1256 1259 1261 1264 1267 1269 1272 1274 1276 1278 1280 1282 1285 1287 1289 1291 1293 1295 1296 1297 1299 1300 1302 1303 1303 1304 1305 1306 1307 1308 1309 1310 1311 1312 1313 1314 1316 1317 1318 1319 1319 1320 1320
1304 1300 1296 1292 1289 1285 1281 1278 1275 1272 1269 1266 1263 1260 1258 1256 1254 1252 1250 1250 1250 1251 1252 1253 1254 1254 1255 1255 1255 1255 1255 1257 1259 1261 1264 1266 1269 1271 1272 1274 1276 1278 1280 1283 1286 1287 1289 1291 1292 1294 1296 1297 1299 1300 1301 1301 1302 1303 1305 1306 1307 1308 1308 1309 1310 1312 1313 1315 1316 1317 1317 1318 1319 1319
1303 1299 1295 1292 1288 1285 1282 1279 1276 1273 1270 1266 1264 1261 1259 1257 1255 1254 1253 1252 1253 1253 1253 1253 1254 1254 1255 1255 1256 1256 1257 1258 1260 1262 1264 1266 1267 1269 1271 1273 1274 1276 1279 1281 1284 1285 1287 1288 1289 1292 1294 1296 1298 1298 1298 1299 1300 1302 1303 1304 1305 1306 1307 1308 1309 1310 1312 1313 1314 1315 1316 1316 1317 1318
1302 1298 1295 1291 1288 1285 1282 1279 1276 1273 1270 1267 1265 1262 1260 1258 1257 1256 1255 1254 1255 1255 1255 1254 1254 1255 1255 1256 1257 1257 1258 1259 1260 1261 1263 1264 1266 1268 1269 1271 1273 1275 1277 1279 1281 1283 1285 1286 1288 1290 1293 1294 1295 1296 1296 1297 1299 1300 1302 1303 1304 1305 1306 1307 1308 1310 1311 1312 1313 1314 1314 1315 1316 1317
1301 1298 1295 1291 1288 1286 1283 1280 1277 1274 1271 1268 1266 1264 1262 1260 1258 1257 1256 1256 1256 1256 1256 1256 1256 1255 1256 1256 1257 1257 1258 1259 1260 1261 1261 1263 1264 1266 1268 1270 1272 1274 1275 1277 1279 1281 1283 1285 1287 1289 1291 1292 1293 1293 1294 1295 1297 1298 1300 1301 1303 1304 1305 1306 1308 1309 1310 1311 1312 1313 1314 1315 1316 1317
1300 1297 1294 1291 1289 1286 1283 1280 1277 1274 1272 1269 1267 1265 1263 1261 1259 1258 1257 1256 1256 1255 1256 1256 1256 1256 1255 1256 1256 1256 1257 1257 1258 1259 1260 1261 1263 1265 1267 1269 1271 1273 1274 1276 1277 1279 1281 1284 1286 1288 1289 1290 1291 1291 1292 1293 1295 1296 1298 1300 1302 1303 1304 1306 1307 1308 1310 1311 1312 1313 1314 1315 1316 1316
1300 1298 1295 1292 1289 1286 1283 1281 1278 1275 1272 1269 1267 1265 1263 1261 1260 1258 1257 1257 1256 1255 1255 1255 1255 1255 1254 1254 1254 1254 1255 1255 1256 1258 1259 1260 1262 1264 1266 1268 1270 1272 1273 1274 1276 1278 1280 1282 1284 1285 1287 1288 1289 1290 1291 1292 1294 1296 1298 1300 1301 1303 1304 1305 1307 1308 1309 1311 1312 1313 1314 1314 1315 1315
1301 1298 1295 1292 1289 1287 1284 1281 1278 1275 1273 1270 1268 1266 1264 1262 1260 1259 1257 1256 1255 1254 1254 1253 1254 1254 1253 1253 1253 1253 1253 1254 1255 1256 1258 1259 1261 1262 1265 1266 1268 1270 1272 1273 1275 1277 1279 1280 1281 1283 1285 1287 1288 1289 1290 1291 1293 1295 1297 1299 1301 1302 1304 1305 1306 1307 1309 1310 1311 1312 1313 1313 1314 1315
1300 1298 1295 1293 1290 1287 1284 1281 1279 1276 1273 1271 1268 1266 1264 1262 1260 1259 1257 1256 1255 1254 1253 1252 1252 1252 1252 1252 1252 1252 1252 1253 1254 1255 1257 1258 1259 1261 1264 1265 1267 1269 1271 1272 1274 1275 1277 1278 1280 1282 1284 1286 1287 1288 1288 1289 1291 1294 1296 1298 1300 1302 1303 1304 1305 1307 1308 1310 1311 1311 1312 1312 1313 1314
1300 1297 1295 1292 1290 1287 1284 1281 1279 1276 1274 1271 1269 1266 1264 1262 1261 1259 1257 1256 1254 1253 1252 1252 1251 1251 1251 1251 1252 1252 1252 1252 1253 1255 1256 1257 1259 1261 1263 1264 1266 1268 1270 1271 1273 1274 1276 1278 1280 1281 1283 1285 1286 1287 1287 1288 1290 1293 1295 1298 1300 1301 1303 1304 1306 1307 1308 1309 1310 1310 1311 1312 1312 1312
1300 1297 1294 1292 1290 1287 1284 1282 1279 1276 1274 1271 1268 1266 1264 1262 1260 1258 1256 1255 1253 1252 1251 1251 1250 1250 1250 1251 1251 1251 1251 1252 1253 1254 1256 1257 1258 1260 1262 1264 1265 1267 1269 1271 1272 1274 1276 1277 1278 1280 1281 1283 1285 1286 1287 1288 1290 1292 1295 1297 1299 1301 1303 1305 1306 1307 1308 1309 1309 1310 1310 1310 1311 1311
1300 1297 1294 1292 1289 1287 1284 1281 1279 1276 1273 1271 1268 1266 1264 1262 1260 1258 1256 1254 1253 1252 1251 1250 1249 1249 1249 1250 1250 1251 1251 1251 1253 1254 1255 1257 1258 1260 1262 1264 1265 1267 1268 1270 1271 1273 1274 1275 1277 1279 1280 1282 1284 1286 1287 1288 1290 1292 1295 1297 1299 1301 1303 1304 1305 1306 1307 1308 1309 1309 1309 1309 1309 1310
1299 1297 1294 1292 1289 1286 1284 1281 1279 1276 1274 1271 1269 1266 1264 1262 1260 1258 1256 1254 1253 1251 1251 1250 1249 1249 1249 1248 1249 1249 1250 1251 1252 1253 1255 1256 1258 1260 1262 1263 1265 1266 1267 1269 1270 1271 1272 1274 1276 1278 1280 1282 1284 1285 1286 1288 1290 1292 1295 1297 1299 1302 1303 1304 1305 1306 1307 1307 1308 1309 1309 1309 1309 1310